SDM6573 ULLI-UNKL

Flight info

Callsign SDM6573
Flight time N/A
Altitude 35000
Route KERIS1A/28R KERIS P989 DIKEP L870 HMN B228 TODES R497 KUMOD N869 KELOK B115 RANET
Aircraft A320/M-SDE3FGHIRWY/LB1

Departure

Time N/A
Airport Pulkovo Airport (ULLI)

Arrival

Time 2026-04-28 21:40
Airport Krasnoyarsk International Airport (UNKL)
Time Latitude Longitude Altitude Speed Heading
2026-04-28 20:36 58.96704 79.86662 35339 ft 490 kts 110°
2026-04-28 20:36 58.95511 79.92847 35336 ft 490 kts 110°
2026-04-28 20:37 58.93109 80.05240 35332 ft 491 kts 110°
2026-04-28 20:37 58.90694 80.17617 35332 ft 491 kts 110°
2026-04-28 20:38 58.88275 80.29903 35339 ft 492 kts 110°
2026-04-28 20:38 58.85831 80.42257 35342 ft 492 kts 110°
2026-04-28 20:39 58.83358 80.54600 35358 ft 492 kts 110°
2026-04-28 20:39 58.80872 80.66926 35355 ft 493 kts 110°
2026-04-28 20:40 58.78376 80.79245 35351 ft 493 kts 110°
2026-04-28 20:40 58.75863 80.91553 35355 ft 494 kts 110°
2026-04-28 20:41 58.73334 81.03854 35357 ft 494 kts 110°
2026-04-28 20:41 58.70807 81.16030 35358 ft 493 kts 110°
2026-04-28 20:42 58.68265 81.28311 35375 ft 493 kts 109°
2026-04-28 20:42 58.65740 81.40554 35373 ft 493 kts 109°
2026-04-28 20:43 58.63192 81.52787 35379 ft 493 kts 110°
2026-04-28 20:43 58.60627 81.64976 35379 ft 493 kts 110°
2026-04-28 20:44 58.58047 81.77182 35381 ft 493 kts 110°
2026-04-28 20:44 58.55453 81.89353 35404 ft 493 kts 109°
2026-04-28 20:45 58.52865 82.01444 35398 ft 494 kts 109°
2026-04-28 20:45 58.50248 82.13629 35384 ft 494 kts 109°
2026-04-28 20:46 58.47621 82.25751 35385 ft 493 kts 109°
2026-04-28 20:46 58.44984 82.37853 35392 ft 493 kts 110°
2026-04-28 20:47 58.42344 82.49939 35392 ft 493 kts 110°
2026-04-28 20:47 58.39688 82.62017 35402 ft 493 kts 109°
2026-04-28 20:48 58.37030 82.74004 35396 ft 493 kts 109°
2026-04-28 20:48 58.34348 82.86043 35388 ft 494 kts 109°
2026-04-28 20:49 58.31647 82.98081 35386 ft 494 kts 109°
2026-04-28 20:49 58.28961 83.10022 35394 ft 494 kts 109°
2026-04-28 20:50 58.26256 83.22010 35396 ft 493 kts 109°
2026-04-28 20:50 58.23541 83.33978 35390 ft 493 kts 109°
2026-04-28 20:51 58.20808 83.45922 35397 ft 493 kts 110°
2026-04-28 20:51 58.18069 83.57828 35394 ft 493 kts 110°
2026-04-28 20:52 58.15336 83.69644 35399 ft 493 kts 110°
2026-04-28 20:52 58.12574 83.81515 35404 ft 493 kts 110°
2026-04-28 20:53 58.08410 83.99314 35415 ft 493 kts 109°
2026-04-28 20:53 58.05618 84.11163 35398 ft 493 kts 109°
2026-04-28 20:54 58.03294 84.20973 35404 ft 493 kts 109°
2026-04-28 20:54 58.00482 84.32778 35409 ft 493 kts 109°
2026-04-28 20:55 57.97663 84.44568 35411 ft 493 kts 109°
2026-04-28 20:55 57.94839 84.56323 35434 ft 493 kts 109°
2026-04-28 20:56 57.91992 84.68073 35429 ft 493 kts 109°
2026-04-28 20:56 57.89132 84.79796 35424 ft 493 kts 109°
2026-04-28 20:57 57.86283 84.91428 35418 ft 493 kts 109°
2026-04-28 20:57 57.83407 85.03114 35413 ft 492 kts 109°
2026-04-28 20:58 57.80524 85.14763 35453 ft 492 kts 109°
2026-04-28 20:58 57.77631 85.26407 35441 ft 492 kts 109°
2026-04-28 20:59 57.74726 85.38019 35433 ft 492 kts 109°
2026-04-28 20:59 57.71830 85.49513 35431 ft 491 kts 109°
2026-04-28 21:00 57.68914 85.61074 35427 ft 491 kts 109°
2026-04-28 21:00 57.65989 85.72623 35424 ft 491 kts 109°
2026-04-28 21:01 57.63049 85.84139 35448 ft 491 kts 109°
2026-04-28 21:01 57.60102 85.95636 35439 ft 490 kts 109°
2026-04-28 21:02 57.57161 86.07029 35433 ft 490 kts 110°
2026-04-28 21:02 57.54193 86.18448 35436 ft 490 kts 110°
2026-04-28 21:03 57.51219 86.29880 35438 ft 490 kts 110°
2026-04-28 21:03 57.48249 86.41270 35470 ft 489 kts 110°
2026-04-28 21:04 57.45257 86.52649 35457 ft 489 kts 110°
2026-04-28 21:04 57.42267 86.63917 35449 ft 490 kts 110°
2026-04-28 21:05 57.39248 86.75253 35441 ft 490 kts 110°
2026-04-28 21:05 57.36230 86.86579 35444 ft 490 kts 110°
2026-04-28 21:06 57.33196 86.97894 35442 ft 490 kts 110°
2026-04-28 21:06 57.30148 87.09180 35461 ft 489 kts 110°
2026-04-28 21:07 57.27119 87.20346 35453 ft 489 kts 110°
2026-04-28 21:07 57.24061 87.31580 35452 ft 489 kts 110°
2026-04-28 21:08 57.20992 87.42773 35452 ft 489 kts 111°
2026-04-28 21:08 57.17910 87.53957 35448 ft 489 kts 111°
2026-04-28 21:09 57.14824 87.65126 35472 ft 489 kts 111°
2026-04-28 21:09 57.11732 87.76297 35469 ft 489 kts 111°
2026-04-28 21:10 57.08627 87.87432 35456 ft 488 kts 111°
2026-04-28 21:10 57.05517 87.98527 35455 ft 488 kts 111°
2026-04-28 21:11 57.02427 88.09483 35461 ft 487 kts 111°
2026-04-28 21:11 56.99296 88.20510 35451 ft 487 kts 111°
2026-04-28 21:12 56.96166 88.31510 35478 ft 486 kts 111°
2026-04-28 21:12 56.93022 88.42478 35472 ft 486 kts 111°
2026-04-28 21:13 56.90127 88.53601 35462 ft 481 kts 105°
2026-04-28 21:13 56.87594 88.64952 35450 ft 481 kts 106°
2026-04-28 21:14 56.85070 88.76198 35442 ft 481 kts 106°
2026-04-28 21:14 56.82509 88.87502 35477 ft 481 kts 106°
2026-04-28 21:15 56.79939 88.98763 35472 ft 480 kts 107°
2026-04-28 21:15 56.77354 89.09993 35466 ft 479 kts 107°
2026-04-28 21:16 56.74786 89.21134 35463 ft 479 kts 107°
2026-04-28 21:16 56.72207 89.32311 35464 ft 478 kts 107°
2026-04-28 21:17 56.69614 89.43479 35458 ft 478 kts 107°
2026-04-28 21:17 56.67009 89.54605 35456 ft 478 kts 107°
2026-04-28 21:18 56.64382 89.65730 35454 ft 478 kts 107°
2026-04-28 21:18 56.61755 89.76821 35460 ft 478 kts 107°
2026-04-28 21:19 56.59124 89.87900 35456 ft 478 kts 107°
2026-04-28 21:19 56.56484 89.98977 35475 ft 478 kts 107°
2026-04-28 21:20 56.53834 90.10036 35480 ft 478 kts 108°
2026-04-28 21:20 56.51172 90.21057 35475 ft 477 kts 108°
2026-04-28 21:21 56.48520 90.32015 35463 ft 477 kts 108°
2026-04-28 21:21 56.47183 90.37539 35204 ft 478 kts 107°
2026-04-28 21:21 56.45853 90.43017 34780 ft 473 kts 107°
2026-04-28 21:22 56.44529 90.48424 34341 ft 467 kts 107°
2026-04-28 21:22 56.43218 90.53745 33846 ft 460 kts 107°
2026-04-28 21:22 56.41924 90.58985 33391 ft 455 kts 107°
2026-04-28 21:22 56.41070 90.62440 33035 ft 451 kts 107°
2026-04-28 21:23 56.39385 90.69267 32329 ft 446 kts 107°
2026-04-28 21:23 56.38124 90.74360 31816 ft 442 kts 107°
2026-04-28 21:23 56.36875 90.79408 31311 ft 438 kts 107°
2026-04-28 21:23 56.35656 90.84324 30820 ft 434 kts 106°
2026-04-28 21:24 56.34429 90.89252 30299 ft 426 kts 106°
2026-04-28 21:24 56.33226 90.94032 29708 ft 411 kts 106°
2026-04-28 21:24 56.32057 90.98653 29140 ft 398 kts 106°
2026-04-28 21:24 56.30929 91.03125 28590 ft 387 kts 106°
2026-04-28 21:25 56.29829 91.07495 28047 ft 380 kts 105°
2026-04-28 21:25 56.28873 91.11865 27513 ft 370 kts 98°
2026-04-28 21:25 56.28208 91.16307 27020 ft 364 kts 92°
2026-04-28 21:25 56.27799 91.20765 26502 ft 359 kts 88°
2026-04-28 21:26 56.27446 91.25225 25993 ft 359 kts 89°
2026-04-28 21:26 56.27091 91.29620 25500 ft 359 kts 89°
2026-04-28 21:26 56.26726 91.34065 25013 ft 359 kts 89°
2026-04-28 21:26 56.26358 91.38499 24526 ft 358 kts 89°
2026-04-28 21:27 56.25989 91.42926 24050 ft 358 kts 89°
2026-04-28 21:27 56.25622 91.47348 23491 ft 357 kts 90°
2026-04-28 21:27 56.25254 91.51765 22937 ft 357 kts 90°
2026-04-28 21:27 56.24883 91.56181 22386 ft 357 kts 90°
2026-04-28 21:28 56.24512 91.60602 21842 ft 357 kts 90°
2026-04-28 21:28 56.24174 91.65020 21314 ft 355 kts 87°
2026-04-28 21:28 56.24116 91.69415 20794 ft 348 kts 79°
2026-04-28 21:28 56.24380 91.73705 20315 ft 342 kts 72°
2026-04-28 21:29 56.24855 91.77867 19780 ft 336 kts 71°
2026-04-28 21:29 56.25313 91.81926 19188 ft 328 kts 71°
2026-04-28 21:29 56.25757 91.85917 18582 ft 320 kts 71°
2026-04-28 21:29 56.26186 91.89759 17918 ft 314 kts 71°
2026-04-28 21:30 56.26615 91.93582 17270 ft 310 kts 71°
2026-04-28 21:30 56.27041 91.97369 16629 ft 306 kts 71°
2026-04-28 21:30 56.27459 92.01098 16003 ft 302 kts 71°
2026-04-28 21:30 56.27869 92.04791 15421 ft 298 kts 72°
2026-04-28 21:31 56.28266 92.08415 14948 ft 292 kts 72°
2026-04-28 21:31 56.28659 92.11974 14479 ft 287 kts 72°
2026-04-28 21:31 56.29046 92.15468 13987 ft 282 kts 72°
2026-04-28 21:31 56.29348 92.18946 13470 ft 281 kts 79°
2026-04-28 21:32 56.29333 92.22428 12964 ft 282 kts 90°
2026-04-28 21:32 56.29115 92.25931 12459 ft 280 kts 90°
2026-04-28 21:32 56.28895 92.29395 11984 ft 278 kts 91°
2026-04-28 21:32 56.28672 92.32843 11496 ft 276 kts 91°
2026-04-28 21:33 56.28451 92.36268 11001 ft 275 kts 91°
2026-04-28 21:33 56.28233 92.39681 10531 ft 273 kts 91°
2026-04-28 21:33 56.28019 92.43068 10030 ft 271 kts 91°
2026-04-28 21:33 56.27806 92.46428 9516 ft 270 kts 92°
2026-04-28 21:34 56.27590 92.49782 9006 ft 269 kts 92°
2026-04-28 21:34 56.27374 92.53112 8496 ft 267 kts 92°
2026-04-28 21:34 56.27155 92.56429 8007 ft 266 kts 93°
2026-04-28 21:34 56.26938 92.59695 7522 ft 265 kts 93°
2026-04-28 21:35 56.26570 92.62901 7043 ft 267 kts 108°
2026-04-28 21:35 56.25679 92.65841 6598 ft 269 kts 127°
2026-04-28 21:35 56.24338 92.68165 6194 ft 268 kts 146°
2026-04-28 21:35 56.22682 92.69659 5800 ft 266 kts 163°
2026-04-28 21:36 56.20913 92.70680 5333 ft 268 kts 164°
2026-04-28 21:36 56.19134 92.71710 4855 ft 269 kts 163°
2026-04-28 21:36 56.17360 92.72744 4374 ft 265 kts 163°
2026-04-28 21:36 56.15619 92.73662 3905 ft 254 kts 173°
2026-04-28 21:37 56.13950 92.73173 3431 ft 240 kts 213°
2026-04-28 21:37 56.12889 92.71050 2959 ft 226 kts 252°
2026-04-28 21:37 56.12779 92.68344 2550 ft 218 kts 288°
2026-04-28 21:37 56.13336 92.65882 2504 ft 208 kts 295°
2026-04-28 21:38 56.13894 92.63544 2368 ft 202 kts 295°
2026-04-28 21:38 56.14442 92.61254 2120 ft 197 kts 294°
2026-04-28 21:38 56.14970 92.59049 1850 ft 186 kts 294°
2026-04-28 21:38 56.15462 92.56994 1589 ft 173 kts 294°
2026-04-28 21:39 56.15908 92.55129 1366 ft 154 kts 293°
2026-04-28 21:39 56.16316 92.53443 1137 ft 141 kts 294°
2026-04-28 21:39 56.16689 92.51893 992 ft 134 kts 293°
2026-04-28 21:39 56.17040 92.50418 954 ft 109 kts 288°
2026-04-28 21:40 56.17213 92.49652 954 ft 32 kts 294°
2026-04-28 21:40 56.17312 92.49248 953 ft 34 kts 294°
2026-04-28 21:40 56.17402 92.48899 952 ft 31 kts 295°
2026-04-28 21:40 56.17505 92.48680 953 ft 22 kts 326°
2026-04-28 21:41 56.17587 92.48576 955 ft 8 kts 324°
2026-04-28 21:41 56.17593 92.48568 954 ft 0 kts 324°
2026-04-28 21:41 56.17628 92.48524 953 ft 9 kts 325°
2026-04-28 21:41 56.17675 92.48463 955 ft 8 kts 323°
2026-04-28 21:42 56.17727 92.48400 954 ft 6 kts 330°
2026-04-28 21:42 56.17762 92.48391 955 ft 4 kts 17°
2026-04-28 21:42 56.17783 92.48410 956 ft 6 kts 27°
2026-04-28 21:42 56.17831 92.48455 954 ft 8 kts 25°
2026-04-28 21:43 56.17861 92.48514 955 ft 6 kts 81°
2026-04-28 21:43 56.17849 92.48589 957 ft 7 kts 112°
2026-04-28 21:43 56.17848 92.48595 957 ft 1 kts 111°
2026-04-28 21:43 56.17852 92.48601 957 ft 0 kts 52°
2026-04-28 21:44 56.17852 92.48602 957 ft 0 kts 49°
2026-04-28 21:44 56.17859 92.48598 956 ft 3 kts 354°
2026-04-28 21:44 56.17889 92.48592 955 ft 4 kts 358°
2026-04-28 21:45 56.17911 92.48605 955 ft 3 kts 23°
2026-04-28 21:45 56.17927 92.48617 955 ft 2 kts 23°
2026-04-28 21:45 56.17929 92.48619 952 ft 0 kts 23°